�N����,����,�~����,�C��,���x,�C��,����,���ϕ���,�ő�u�ԕ���,�ő厞����,���˗�,�I�_���x,�n�����x,�ő啗���N��,DTYPE
"16/05/01","00:10",0.0,10.2,86.0,1009.0,313.4,1.5,2.2,325.7,0.00,8.0,15.1,"00:02:34",1
"16/05/01","00:20",0.0,10.3,85.9,1009.0,297.7,1.3,1.8,316.3,0.00,8.1,15.2,"00:18:32",1
"16/05/01","00:30",0.0,10.5,85.1,1009.5,305.3,1.6,2.2,328.2,0.00,8.1,15.2,"00:29:38",1
"16/05/01","00:40",0.0,10.5,84.8,1009.5,333.8,1.0,2.0,322.6,0.00,8.1,15.0,"00:30:42",1
"16/05/01","00:50",0.0,10.2,85.5,1009.3,298.2,1.0,1.3,269.6,0.00,7.9,14.9,"00:44:02",1
"16/05/01","01:00",0.0,10.0,86.3,1009.7,301.9,0.8,1.2,322.2,0.00,7.9,14.9,"00:55:02",1
"16/05/01","01:10",0.0,9.8,87.1,1009.5,304.7,1.6,1.9,305.1,0.00,7.8,14.6,"01:01:28",1
"16/05/01","01:20",0.0,9.6,88.4,1009.5,310.4,1.2,1.8,320.7,0.00,7.8,14.8,"01:14:14",1
"16/05/01","01:30",0.0,9.6,89.0,1009.5,317.4,1.0,2.0,317.7,0.00,7.9,14.9,"01:29:36",1
"16/05/01","01:40",0.0,9.4,88.7,1009.5,290.9,1.2,1.8,304.8,0.00,7.7,14.7,"01:30:40",1
"16/05/01","01:50",0.0,9.4,89.2,1009.7,306.3,1.7,2.0,313.1,0.00,7.8,14.7,"01:45:44",1
"16/05/01","02:00",0.0,9.6,88.6,1009.3,301.4,1.6,2.1,314.8,0.00,7.9,14.7,"01:57:24",1
"16/05/01","02:10",0.0,9.5,88.4,1009.7,312.8,1.7,2.1,331.3,0.00,7.7,14.5,"02:02:40",1
"16/05/01","02:20",0.0,9.3,89.1,1009.5,300.4,1.3,1.6,317.2,0.00,7.6,14.6,"02:12:58",1
"16/05/01","02:30",0.0,9.4,89.3,1009.5,295.1,1.6,1.8,301.8,0.00,7.8,14.5,"02:24:24",1
"16/05/01","02:40",0.0,9.5,88.7,1009.3,285.2,1.3,2.0,292.3,0.00,7.8,14.6,"02:30:34",1
"16/05/01","02:50",0.0,9.5,88.6,1009.5,294.6,1.5,1.8,301.6,0.00,7.8,14.4,"02:42:30",1
"16/05/01","03:00",0.0,9.3,89.1,1009.7,312.3,1.6,2.0,328.3,0.00,7.6,14.2,"02:52:50",1
"16/05/01","03:10",0.0,9.0,89.9,1009.0,313.8,1.6,2.0,323.4,0.00,7.5,14.3,"03:07:08",1
"16/05/01","03:20",0.0,9.0,90.7,1009.7,293.8,1.5,1.8,293.1,0.00,7.6,14.2,"03:12:50",1
"16/05/01","03:30",0.0,9.4,90.7,1009.5,286.1,1.5,1.8,315.2,0.00,8.0,14.2,"03:28:40",1
"16/05/01","03:40",0.0,9.4,90.0,1010.0,320.3,1.7,2.1,334.2,0.00,7.9,14.1,"03:38:26",1
"16/05/01","03:50",0.0,9.0,90.6,1009.7,309.2,1.5,2.0,321.3,0.00,7.6,14.0,"03:42:46",1
"16/05/01","04:00",0.0,8.7,91.9,1009.7,295.8,0.7,1.3,323.3,0.00,7.5,14.1,"03:59:32",1
"16/05/01","04:10",0.0,8.7,92.1,1009.7,318.2,1.6,1.9,336.1,0.00,7.5,13.8,"04:08:34",1
"16/05/01","04:20",0.0,8.7,92.1,1010.0,319.3,1.6,2.0,332.6,0.00,7.5,14.0,"04:13:06",1
"16/05/01","04:30",0.0,8.5,92.9,1009.7,344.0,0.3,0.9,268.0,0.00,7.5,14.0,"04:20:20",1
"16/05/01","04:40",0.0,8.4,93.2,1010.0,304.5,1.0,1.6,306.2,0.00,7.4,13.8,"04:39:00",1
"16/05/01","04:50",0.0,8.3,93.9,1010.2,309.9,1.5,1.8,315.1,0.00,7.4,13.9,"04:44:12",1
"16/05/01","05:00",0.0,8.6,94.3,1010.2,307.8,1.7,2.6,316.4,0.00,7.8,14.0,"04:56:56",1
"16/05/01","05:10",0.0,8.9,93.9,1010.2,298.4,1.5,1.8,311.5,0.00,8.0,14.1,"05:00:40",1
"16/05/01","05:20",0.0,8.9,93.5,1010.2,307.1,1.3,1.6,323.9,0.00,7.9,13.6,"05:12:56",1
"16/05/01","05:30",0.0,8.9,92.9,1010.4,309.7,1.3,1.6,317.9,0.00,7.9,13.7,"05:24:56",1
"16/05/01","05:40",0.0,9.0,92.9,1010.4,319.8,1.3,1.7,318.8,0.00,8.0,13.7,"05:30:46",1
"16/05/01","05:50",0.0,9.2,92.9,1010.7,311.8,1.2,1.7,323.0,0.00,8.2,13.7,"05:46:38",1
"16/05/01","06:00",0.0,9.5,92.7,1010.4,288.2,0.8,1.4,312.8,0.01,8.4,13.6,"05:50:10",1
"16/05/01","06:10",0.0,10.2,92.5,1010.4,290.2,0.6,1.1,289.6,0.02,9.1,13.7,"06:04:56",1
"16/05/01","06:20",0.0,10.9,92.0,1010.7,307.9,0.8,1.9,326.6,0.02,9.7,13.5,"06:14:18",1
"16/05/01","06:30",0.0,11.7,89.6,1010.9,317.9,1.0,1.6,328.2,0.04,10.1,13.6,"06:28:56",1
"16/05/01","06:40",0.0,12.0,86.5,1011.4,330.7,1.2,1.4,332.9,0.05,9.9,13.8,"06:30:16",1
"16/05/01","06:50",0.0,12.8,84.9,1011.2,324.0,0.8,1.4,334.7,0.08,10.4,13.7,"06:40:08",1
"16/05/01","07:00",0.0,13.4,81.0,1011.6,288.8,0.2,0.5,294.9,0.11,10.2,13.8,"06:50:08",1
"16/05/01","07:10",0.0,13.8,78.5,1011.9,257.0,0.3,0.9,246.0,0.13,10.2,13.9,"07:01:52",1
"16/05/01","07:20",0.0,14.7,74.4,1012.1,29.8,0.3,1.0,109.0,0.15,10.2,14.0,"07:14:16",1
"16/05/01","07:30",0.0,15.6,73.6,1012.1,305.4,0.5,1.6,345.2,0.18,10.9,14.1,"07:29:12",1
"16/05/01","07:40",0.0,16.1,70.6,1012.1,328.2,0.8,1.3,345.1,0.20,10.8,14.2,"07:30:16",1
"16/05/01","07:50",0.0,16.4,69.4,1012.1,231.7,0.5,1.2,168.3,0.23,10.8,14.3,"07:49:20",1
"16/05/01","08:00",0.0,16.7,66.3,1012.1,221.0,0.7,2.1,126.9,0.26,10.4,14.2,"07:59:28",1
"16/05/01","08:10",0.0,17.3,64.2,1011.9,193.3,0.6,2.1,153.9,0.28,10.5,14.4,"08:03:04",1
"16/05/01","08:20",0.0,17.6,62.8,1011.6,164.6,1.0,2.5,107.8,0.31,10.5,14.5,"08:19:12",1
"16/05/01","08:30",0.0,17.7,62.0,1011.4,144.6,1.1,2.5,189.0,0.34,10.4,14.6,"08:24:16",1
"16/05/01","08:40",0.0,18.1,63.7,1011.4,193.7,1.2,2.6,165.0,0.36,11.2,14.6,"08:34:48",1
"16/05/01","08:50",0.0,18.3,63.0,1011.4,189.3,1.7,3.9,193.9,0.38,11.2,14.8,"08:44:08",1
"16/05/01","09:00",0.0,18.7,61.1,1011.2,152.3,1.0,2.1,116.5,0.41,11.1,15.0,"08:51:36",1
"16/05/01","09:10",0.0,19.3,62.5,1010.7,142.9,1.5,3.2,166.2,0.43,12.0,15.2,"09:03:28",1
"16/05/01","09:20",0.0,19.6,61.0,1010.9,139.2,1.6,3.6,121.9,0.45,11.9,15.4,"09:14:16",1
"16/05/01","09:30",0.0,20.0,61.1,1010.9,155.4,1.5,2.6,175.7,0.47,12.3,15.5,"09:23:20",1
"16/05/01","09:40",0.0,20.7,60.0,1010.7,159.6,1.6,3.1,217.5,0.49,12.7,15.7,"09:37:12",1
"16/05/01","09:50",0.0,21.1,56.9,1010.4,159.9,1.5,2.7,169.1,0.50,12.3,15.9,"09:44:32",1
"16/05/01","10:00",0.0,21.1,57.2,1010.4,153.8,1.6,4.0,125.7,0.52,12.4,16.2,"09:58:24",1
"16/05/01","10:10",0.0,21.8,59.6,1010.0,139.0,1.1,2.4,105.9,0.53,13.6,16.3,"10:02:48",1
"16/05/01","10:20",0.0,22.0,53.6,1010.0,137.0,1.2,2.2,122.6,0.54,12.2,16.6,"10:15:44",1
"16/05/01","10:30",0.0,22.7,52.3,1009.7,150.8,1.5,2.8,125.4,0.55,12.5,16.8,"10:23:20",1
"16/05/01","10:40",0.0,23.6,52.8,1009.5,31.9,1.1,2.7,16.1,0.56,13.5,17.2,"10:37:20",1
"16/05/01","10:50",0.0,23.9,49.0,1009.5,38.0,0.7,2.0,33.8,0.57,12.6,17.5,"10:46:48",1
"16/05/01","11:00",0.0,24.7,49.2,1009.0,357.7,1.1,2.4,20.2,0.58,13.4,17.5,"10:57:04",1
"16/05/01","11:10",0.0,24.5,51.1,1008.8,90.0,1.6,3.6,350.4,0.59,13.8,18.1,"11:01:20",1
"16/05/01","11:20",0.0,24.8,48.8,1008.6,156.6,2.2,3.9,195.1,0.59,13.3,18.2,"11:17:12",1
"16/05/01","11:30",0.0,25.1,43.0,1008.3,168.4,2.3,3.7,118.6,0.60,11.7,18.6,"11:28:00",1
"16/05/01","11:40",0.0,25.8,47.6,1008.1,189.3,2.2,5.1,193.7,0.61,13.9,18.8,"11:31:04",1
"16/05/01","11:50",0.0,25.3,43.9,1008.1,171.9,2.6,5.8,113.7,0.61,12.2,18.9,"11:49:36",1
"16/05/01","12:00",0.0,25.8,39.0,1008.3,140.3,2.5,5.7,124.6,0.60,10.8,19.0,"11:50:48",1
"16/05/01","12:10",0.0,26.3,36.6,1007.8,276.6,1.2,3.7,338.5,0.61,10.3,19.1,"12:06:16",1
"16/05/01","12:20",0.0,26.6,33.1,1008.1,305.2,1.5,2.9,325.3,0.62,9.1,19.5,"12:17:52",1
"16/05/01","12:30",0.0,26.8,34.5,1008.1,240.5,1.8,5.2,225.5,0.64,9.9,19.6,"12:27:44",1
"16/05/01","12:40",0.0,26.7,33.9,1007.8,239.8,2.1,4.5,218.3,0.60,9.5,19.9,"12:39:28",1
"16/05/01","12:50",0.0,27.5,35.5,1008.1,297.2,2.1,5.5,212.3,0.60,10.9,20.1,"12:41:28",1
"16/05/01","13:00",0.0,27.7,32.5,1008.1,284.0,1.5,3.5,213.1,0.60,9.8,20.2,"12:50:48",1
"16/05/01","13:10",0.0,27.3,36.9,1008.1,282.6,1.5,4.9,248.4,0.51,11.3,20.5,"13:07:04",1
"16/05/01","13:20",0.0,27.0,33.5,1008.3,288.3,1.5,4.5,218.5,0.48,9.6,20.4,"13:18:16",1
"16/05/01","13:30",0.0,26.6,34.3,1007.8,239.0,1.7,4.4,217.6,0.40,9.6,20.5,"13:25:20",1
"16/05/01","13:40",0.0,26.9,33.3,1007.6,269.9,1.6,2.9,331.0,0.37,9.5,20.6,"13:30:02",1
"16/05/01","13:50",0.0,26.7,31.5,1007.8,272.9,1.3,2.9,317.1,0.36,8.5,20.6,"13:40:24",1
"16/05/01","14:00",0.0,26.3,30.7,1007.1,243.4,1.7,4.4,235.8,0.31,7.7,20.7,"13:56:56",1
"16/05/01","14:10",0.0,26.6,33.8,1007.1,176.1,0.8,2.5,207.6,0.29,9.4,20.7,"14:00:48",1
"16/05/01","14:20",0.0,26.4,32.3,1006.9,109.2,1.1,2.5,127.4,0.25,8.6,20.8,"14:10:40",1
"16/05/01","14:30",0.0,26.8,31.8,1007.1,19.7,1.0,2.8,356.5,0.24,8.7,20.9,"14:25:20",1
"16/05/01","14:40",0.0,26.5,32.2,1006.9,327.2,1.2,2.9,357.5,0.24,8.6,20.7,"14:32:16",1
"16/05/01","14:50",0.0,27.1,34.8,1006.9,355.3,0.8,2.4,133.1,0.24,10.3,20.6,"14:49:12",1
"16/05/01","15:00",0.0,26.1,34.7,1007.1,358.2,2.2,5.7,349.2,0.18,9.4,20.6,"14:55:20",1
"16/05/01","15:10",0.0,25.7,34.1,1007.4,352.3,2.3,5.1,351.6,0.18,8.8,20.6,"15:06:08",1
"16/05/01","15:20",0.0,26.0,34.9,1007.1,353.2,2.5,5.5,352.6,0.23,9.4,20.8,"15:18:24",1
"16/05/01","15:30",0.0,26.0,35.9,1007.6,355.1,2.6,5.4,352.5,0.22,9.8,20.6,"15:20:24",1
"16/05/01","15:40",0.0,25.5,33.7,1007.8,7.1,2.2,4.1,341.6,0.19,8.4,20.4,"15:35:52",1
"16/05/01","15:50",0.0,25.3,40.1,1007.8,39.9,0.8,2.8,349.7,0.17,10.8,20.5,"15:40:08",1
"16/05/01","16:00",0.0,24.9,40.9,1008.1,64.6,1.2,3.2,108.7,0.14,10.8,20.5,"15:52:56",1
"16/05/01","16:10",0.0,24.5,39.6,1008.3,89.9,1.5,4.2,116.3,0.16,9.9,20.5,"16:04:24",1
"16/05/01","16:20",0.0,23.8,41.1,1008.3,107.3,1.6,4.7,117.6,0.12,9.8,20.4,"16:19:28",1
"16/05/01","16:30",0.0,23.3,40.3,1008.8,101.1,2.0,4.0,113.9,0.09,9.1,20.2,"16:29:12",1
"16/05/01","16:40",0.0,22.9,40.0,1008.8,110.8,1.8,3.7,120.8,0.08,8.6,20.2,"16:36:08",1
"16/05/01","16:50",0.0,22.6,40.4,1009.5,123.9,2.1,4.0,126.7,0.07,8.5,20.2,"16:48:48",1
"16/05/01","17:00",0.0,22.4,41.3,1009.3,117.0,1.3,3.1,122.0,0.06,8.7,20.1,"16:50:56",1
"16/05/01","17:10",0.0,22.3,41.0,1009.0,114.4,1.0,2.2,125.2,0.06,8.5,20.0,"17:06:40",1
"16/05/01","17:20",0.0,21.9,41.9,1008.8,113.2,1.6,3.3,116.9,0.05,8.4,20.1,"17:18:08",1
"16/05/01","17:30",0.0,21.5,43.8,1009.3,116.2,1.3,3.4,109.8,0.04,8.7,19.8,"17:26:00",1
"16/05/01","17:40",0.0,21.3,44.1,1009.5,117.5,1.7,2.9,113.5,0.03,8.6,19.7,"17:35:52",1
"16/05/01","17:50",0.0,21.0,44.9,1009.3,119.6,1.1,2.4,119.0,0.03,8.6,19.7,"17:46:48",1
"16/05/01","18:00",0.0,20.9,45.0,1009.7,62.4,0.6,1.6,129.2,0.02,8.6,19.7,"17:50:48",1
"16/05/01","18:10",0.0,20.8,45.3,1010.2,17.4,0.6,1.3,17.1,0.01,8.6,19.6,"18:03:04",1
"16/05/01","18:20",0.0,20.5,46.8,1010.0,335.9,1.0,1.9,337.0,0.00,8.8,19.4,"18:17:52",1
"16/05/01","18:30",0.0,19.9,48.3,1010.2,316.9,1.3,2.0,336.8,0.00,8.7,19.2,"18:21:36",1
"16/05/01","18:40",0.0,19.3,49.6,1010.7,319.3,1.1,1.7,322.2,0.00,8.5,19.0,"18:31:04",1
"16/05/01","18:50",0.0,18.9,55.6,1010.7,329.7,1.3,2.2,339.6,0.00,9.9,19.1,"18:49:36",1
"16/05/01","19:00",0.0,18.2,57.6,1010.4,338.5,1.3,1.9,340.9,0.00,9.7,19.1,"18:54:56",1
"16/05/01","19:10",0.0,17.6,60.7,1010.9,294.7,0.7,1.6,335.9,0.00,10.0,19.0,"19:00:40",1
"16/05/01","19:20",0.0,17.2,62.1,1010.9,307.8,1.3,2.1,326.1,0.00,9.9,18.7,"19:19:12",1
"16/05/01","19:30",0.0,16.9,63.7,1010.9,302.1,1.2,1.9,340.0,0.00,10.0,18.8,"19:22:48",1
"16/05/01","19:40",0.0,16.5,64.4,1010.9,290.4,1.0,1.4,304.1,0.00,9.8,18.7,"19:36:56",1
"16/05/01","19:50",0.0,16.3,66.5,1011.2,302.7,1.1,1.6,322.2,0.00,10.1,18.6,"19:46:00",1
"16/05/01","20:00",0.0,16.0,67.8,1011.6,329.0,1.1,1.8,333.4,0.00,10.1,18.3,"19:50:02",1
"16/05/01","20:10",0.0,15.6,69.6,1011.4,323.0,1.2,1.6,328.9,0.00,10.1,18.4,"20:00:24",1
"16/05/01","20:20",0.0,15.2,71.2,1011.6,324.1,1.1,1.6,322.5,0.00,10.1,18.1,"20:10:32",1
"16/05/01","20:30",0.0,14.9,72.1,1011.6,304.8,1.1,1.6,308.4,0.00,10.0,18.1,"20:21:04",1
"16/05/01","20:40",0.0,14.6,73.5,1011.9,290.8,0.7,1.8,316.1,0.00,10.0,18.0,"20:39:52",1
"16/05/01","20:50",0.0,14.2,75.8,1011.6,315.6,1.6,1.9,318.1,0.00,10.0,17.9,"20:40:08",1
"16/05/01","21:00",0.0,14.2,75.5,1011.9,308.6,1.3,2.0,308.7,0.00,10.0,17.6,"20:50:32",1
"16/05/01","21:10",0.0,14.2,75.1,1011.9,310.4,1.3,2.2,338.0,0.00,9.9,17.7,"21:02:48",1
"16/05/01","21:20",0.0,14.3,74.0,1012.1,282.9,1.2,2.0,309.6,0.00,9.8,17.5,"21:12:32",1
"16/05/01","21:30",0.0,14.3,73.4,1012.1,298.0,1.2,1.8,308.8,0.00,9.7,17.6,"21:22:24",1
"16/05/01","21:40",0.0,14.2,73.7,1011.9,296.0,1.2,2.1,323.4,0.00,9.6,17.5,"21:31:04",1
"16/05/01","21:50",0.0,14.0,73.8,1012.6,288.9,1.2,1.9,308.8,0.00,9.4,17.3,"21:46:00",1
"16/05/01","22:00",0.0,14.1,72.9,1012.3,282.2,1.2,1.6,301.4,0.00,9.4,17.5,"21:53:12",1
"16/05/01","22:10",0.0,14.0,72.5,1012.1,300.0,1.3,1.8,310.4,0.00,9.2,17.2,"22:04:40",1
"16/05/01","22:20",0.0,14.0,72.4,1012.3,283.6,1.2,1.4,300.1,0.00,9.2,17.0,"22:10:16",1
"16/05/01","22:30",0.0,13.8,73.3,1012.6,305.7,1.5,2.1,310.6,0.00,9.1,17.1,"22:27:28",1
"16/05/01","22:40",0.0,13.6,74.8,1012.6,304.7,1.2,2.1,328.0,0.00,9.3,17.0,"22:31:52",1
"16/05/01","22:50",0.0,13.4,75.7,1012.3,280.1,1.0,1.8,320.1,0.00,9.2,16.7,"22:41:52",1
"16/05/01","23:00",0.0,13.3,75.5,1012.6,309.9,1.1,1.8,323.1,0.00,9.1,16.7,"22:57:04",1
"16/05/01","23:10",0.0,13.1,76.3,1012.6,309.8,1.1,2.0,317.3,0.00,9.1,16.5,"23:08:24",1
"16/05/01","23:20",0.0,12.9,76.9,1012.8,303.2,1.1,1.9,307.7,0.00,9.0,16.7,"23:10:56",1
"16/05/01","23:30",0.0,12.8,77.2,1012.6,292.9,1.3,1.7,317.8,0.00,9.0,16.6,"23:24:16",1
"16/05/01","23:40",0.0,13.0,75.7,1012.1,298.1,1.2,2.9,308.9,0.00,8.9,16.6,"23:31:12",1
"16/05/01","23:50",0.0,13.2,75.2,1012.3,331.8,1.3,2.0,310.3,0.00,8.9,16.5,"23:44:58",1
"16/05/01","24:00",0.0,13.1,77.1,1012.3,324.2,1.5,1.9,345.7,0.00,9.2,16.5,"23:51:20",1
